Time,TemperatureF,DewpointF,PressureIn,WindDirection,WindDirectionDegrees,WindSpeedMPH,WindSpeedGustMPH,Humidity,HourlyPrecipIn,Conditions,Clouds,dailyrainin,SoftwareType,DateUTC
2013-02-13 00:07:00,43.8,41.0,29.99,WNW,301,8.0,13.0,89,0.00,,,0.00,weatherlink.com 1.10,2013-02-13 07:07:00,
2013-02-13 00:22:00,42.9,40.0,30.00,WSW,249,5.0,13.0,90,0.00,,,0.00,weatherlink.com 1.10,2013-02-13 07:22:00,
2013-02-13 00:37:00,42.5,40.0,30.00,NW,304,5.0,12.0,90,0.00,,,0.00,weatherlink.com 1.10,2013-02-13 07:37:00,
2013-02-13 00:52:00,42.1,39.0,30.00,WNW,288,11.0,12.0,90,0.00,,,0.00,weatherlink.com 1.10,2013-02-13 07:52:00,
2013-02-13 01:07:00,41.9,39.0,30.01,West,278,8.0,10.0,89,0.00,,,0.00,weatherlink.com 1.10,2013-02-13 08:07:00,
2013-02-13 01:22:00,41.6,39.0,30.00,WNW,301,4.0,10.0,89,0.00,,,0.00,weatherlink.com 1.10,2013-02-13 08:22:00,
2013-02-13 01:37:00,41.3,39.0,30.01,West,277,0.0,7.0,90,0.00,,,0.00,weatherlink.com 1.10,2013-02-13 08:37:00,
2013-02-13 01:52:00,41.5,39.0,30.02,WNW,298,1.0,13.0,90,0.00,,,0.00,weatherlink.com 1.10,2013-02-13 08:52:00,
2013-02-13 02:07:00,41.6,39.0,30.02,NW,326,5.0,9.0,89,0.00,,,0.00,weatherlink.com 1.10,2013-02-13 09:07:00,
2013-02-13 02:22:00,41.5,39.0,30.02,WNW,294,3.0,12.0,89,0.00,,,0.00,weatherlink.com 1.10,2013-02-13 09:22:00,
2013-02-13 02:37:00,41.7,38.0,30.02,WNW,298,7.0,14.0,88,0.00,,,0.00,weatherlink.com 1.10,2013-02-13 09:37:00,
2013-02-13 02:52:00,41.6,38.0,30.02,WNW,298,6.0,11.0,88,0.00,,,0.00,weatherlink.com 1.10,2013-02-13 09:52:00,
2013-02-13 03:07:00,41.6,39.0,30.03,West,276,1.0,9.0,89,0.00,,,0.00,weatherlink.com 1.10,2013-02-13 10:07:00,
2013-02-13 03:22:00,41.4,38.0,30.03,WNW,297,4.0,14.0,88,0.00,,,0.00,weatherlink.com 1.10,2013-02-13 10:22:00,
2013-02-13 03:37:00,41.4,38.0,30.04,WNW,297,8.0,10.0,88,0.00,,,0.00,weatherlink.com 1.10,2013-02-13 10:37:00,
2013-02-13 03:52:00,41.3,38.0,30.05,WNW,300,7.0,17.0,87,0.00,,,0.00,weatherlink.com 1.10,2013-02-13 10:52:00,
2013-02-13 04:07:00,41.1,38.0,30.05,WNW,299,1.0,14.0,88,0.00,,,0.00,weatherlink.com 1.10,2013-02-13 11:07:00,
2013-02-13 04:22:00,41.0,38.0,30.05,WNW,300,5.0,8.0,89,0.00,,,0.00,weatherlink.com 1.10,2013-02-13 11:22:00,
2013-02-13 04:37:00,40.8,38.0,30.05,WNW,303,4.0,10.0,89,0.00,,,0.00,weatherlink.com 1.10,2013-02-13 11:37:00,
2013-02-13 04:52:00,40.6,38.0,30.05,West,267,3.0,11.0,89,0.00,,,0.00,weatherlink.com 1.10,2013-02-13 11:52:00,
2013-02-13 05:07:00,40.6,37.0,30.06,WNW,301,3.0,10.0,88,0.00,,,0.00,weatherlink.com 1.10,2013-02-13 12:07:00,
2013-02-13 05:22:00,40.6,37.0,30.06,WNW,301,7.0,15.0,88,0.00,,,0.00,weatherlink.com 1.10,2013-02-13 12:22:00,
2013-02-13 05:37:00,40.5,38.0,30.07,WNW,295,4.0,10.0,89,0.00,,,0.00,weatherlink.com 1.10,2013-02-13 12:37:00,
2013-02-13 05:52:00,40.3,37.0,30.07,WNW,295,6.0,11.0,88,0.00,,,0.00,weatherlink.com 1.10,2013-02-13 12:52:00,
2013-02-13 06:07:00,40.4,37.0,30.07,NW,304,4.0,8.0,88,0.00,,,0.00,weatherlink.com 1.10,2013-02-13 13:07:00,
2013-02-13 06:22:00,40.5,38.0,30.07,NNW,330,1.0,12.0,89,0.00,,,0.00,weatherlink.com 1.10,2013-02-13 13:22:00,
2013-02-13 06:38:00,40.3,37.0,30.08,WNW,298,4.0,14.0,88,0.00,,,0.00,weatherlink.com 1.10,2013-02-13 13:38:00,
2013-02-13 06:53:00,40.6,38.0,30.09,WNW,292,5.0,11.0,89,0.00,,,0.00,weatherlink.com 1.10,2013-02-13 13:53:00,
2013-02-13 07:08:00,40.8,38.0,30.09,WNW,295,3.0,10.0,88,0.00,,,0.00,weatherlink.com 1.10,2013-02-13 14:08:00,
2013-02-13 07:23:00,40.9,37.0,30.09,West,259,0.0,8.0,87,0.00,,,0.00,weatherlink.com 1.10,2013-02-13 14:23:00,
2013-02-13 07:38:00,40.9,37.0,30.10,NW,323,5.0,5.0,87,0.00,,,0.00,weatherlink.com 1.10,2013-02-13 14:38:00,
2013-02-13 07:53:00,41.1,38.0,30.11,WNW,301,3.0,5.0,88,0.00,,,0.00,weatherlink.com 1.10,2013-02-13 14:53:00,
2013-02-13 08:08:00,41.4,38.0,30.11,WNW,299,2.0,6.0,87,0.00,,,0.00,weatherlink.com 1.10,2013-02-13 15:08:00,
2013-02-13 08:23:00,41.3,37.0,30.11,WNW,288,2.0,6.0,86,0.00,,,0.00,weatherlink.com 1.10,2013-02-13 15:23:00,
2013-02-13 08:38:00,41.5,38.0,30.12,WNW,294,3.0,6.0,86,0.00,,,0.00,weatherlink.com 1.10,2013-02-13 15:38:00,
2013-02-13 08:53:00,41.7,38.0,30.12,West,280,2.0,6.0,85,0.00,,,0.00,weatherlink.com 1.10,2013-02-13 15:53:00,
2013-02-13 09:08:00,42.2,38.0,30.13,NW,315,4.0,9.0,85,0.00,,,0.00,weatherlink.com 1.10,2013-02-13 16:08:00,
2013-02-13 09:23:00,42.4,38.0,30.13,WNW,302,4.0,9.0,84,0.00,,,0.00,weatherlink.com 1.10,2013-02-13 16:23:00,
2013-02-13 09:38:00,42.5,38.0,30.14,WNW,299,4.0,6.0,85,0.00,,,0.00,weatherlink.com 1.10,2013-02-13 16:38:00,
2013-02-13 09:54:00,42.6,38.0,30.14,WNW,302,4.0,6.0,84,0.00,,,0.00,weatherlink.com 1.10,2013-02-13 16:54:00,
2013-02-13 10:08:00,42.7,39.0,30.14,NW,304,3.0,6.0,85,0.00,,,0.00,weatherlink.com 1.10,2013-02-13 17:08:00,
2013-02-13 10:23:00,42.8,38.0,30.14,WSW,239,2.0,8.0,83,0.00,,,0.00,weatherlink.com 1.10,2013-02-13 17:23:00,
2013-02-13 10:38:00,42.7,38.0,30.14,WNW,290,2.0,6.0,83,0.00,,,0.00,weatherlink.com 1.10,2013-02-13 17:38:00,
2013-02-13 10:53:00,43.4,38.0,30.13,WSW,256,2.0,4.0,81,0.00,,,0.00,weatherlink.com 1.10,2013-02-13 17:53:00,
2013-02-13 11:08:00,43.9,38.0,30.12,WNW,300,3.0,4.0,79,0.00,,,0.00,weatherlink.com 1.10,2013-02-13 18:08:00,
2013-02-13 11:23:00,44.9,38.0,30.11,WSW,249,1.0,3.0,76,0.00,,,0.00,weatherlink.com 1.10,2013-02-13 18:23:00,
2013-02-13 11:38:00,46.7,39.0,30.10,WSW,246,1.0,5.0,74,0.00,,,0.00,weatherlink.com 1.10,2013-02-13 18:38:00,
2013-02-13 11:53:00,47.0,39.0,30.09,NW,314,2.0,3.0,75,0.00,,,0.00,weatherlink.com 1.10,2013-02-13 18:53:00,
2013-02-13 12:08:00,47.0,39.0,30.09,SW,232,0.0,3.0,73,0.00,,,0.00,weatherlink.com 1.10,2013-02-13 19:08:00,
2013-02-13 12:23:00,48.2,40.0,30.08,WSW,248,3.0,3.0,73,0.00,,,0.00,weatherlink.com 1.10,2013-02-13 19:23:00,
2013-02-13 12:38:00,48.2,39.0,30.07,WNW,295,0.0,3.0,71,0.00,,,0.00,weatherlink.com 1.10,2013-02-13 19:38:00,
2013-02-13 12:53:00,48.9,40.0,30.06,NNW,335,1.0,4.0,71,0.00,,,0.00,weatherlink.com 1.10,2013-02-13 19:53:00,
2013-02-13 13:08:00,49.5,40.0,30.06,NNW,342,0.0,3.0,71,0.00,,,0.00,weatherlink.com 1.10,2013-02-13 20:08:00,
2013-02-13 13:23:00,49.9,40.0,30.05,WSW,241,0.0,5.0,69,0.00,,,0.00,weatherlink.com 1.10,2013-02-13 20:23:00,
2013-02-13 13:38:00,50.6,40.0,30.04,NW,309,2.0,4.0,67,0.00,,,0.00,weatherlink.com 1.10,2013-02-13 20:38:00,
2013-02-13 13:53:00,51.6,40.0,30.04,WNW,288,1.0,6.0,65,0.00,,,0.00,weatherlink.com 1.10,2013-02-13 20:53:00,
2013-02-13 14:08:00,51.5,40.0,30.03,West,278,1.0,4.0,65,0.00,,,0.00,weatherlink.com 1.10,2013-02-13 21:08:00,
2013-02-13 14:23:00,52.7,40.0,30.03,West,278,0.0,4.0,63,0.00,,,0.00,weatherlink.com 1.10,2013-02-13 21:23:00,
2013-02-13 14:38:00,52.9,40.0,30.02,NNE,20,1.0,4.0,62,0.00,,,0.00,weatherlink.com 1.10,2013-02-13 21:38:00,
2013-02-13 14:53:00,53.7,39.0,30.02,WNW,298,2.0,4.0,59,0.00,,,0.00,weatherlink.com 1.10,2013-02-13 21:53:00,
2013-02-13 15:09:00,53.8,40.0,30.02,NW,309,2.0,8.0,60,0.00,,,0.00,weatherlink.com 1.10,2013-02-13 22:09:00,
2013-02-13 15:24:00,53.8,39.0,30.02,WNW,298,2.0,4.0,57,0.00,,,0.00,weatherlink.com 1.10,2013-02-13 22:24:00,
2013-02-13 15:39:00,53.9,39.0,30.02,NNW,342,0.0,2.0,57,0.00,,,0.00,weatherlink.com 1.10,2013-02-13 22:39:00,
2013-02-13 15:54:00,54.5,40.0,30.02,SW,227,1.0,1.0,59,0.00,,,0.00,weatherlink.com 1.10,2013-02-13 22:54:00,
2013-02-13 16:09:00,54.0,38.0,30.02,NW,321,0.0,5.0,56,0.00,,,0.00,weatherlink.com 1.10,2013-02-13 23:09:00,
2013-02-13 16:24:00,54.7,39.0,30.01,WSW,239,0.0,0.0,55,0.00,,,0.00,weatherlink.com 1.10,2013-02-13 23:24:00,
2013-02-13 16:39:00,54.0,37.0,30.01,WSW,250,0.0,1.0,54,0.00,,,0.00,weatherlink.com 1.10,2013-02-13 23:39:00,
2013-02-13 16:54:00,53.3,37.0,30.01,WSW,248,0.0,2.0,54,0.00,,,0.00,weatherlink.com 1.10,2013-02-13 23:54:00,
2013-02-13 17:09:00,51.6,37.0,30.01,WSW,249,0.0,0.0,58,0.00,,,0.00,weatherlink.com 1.10,2013-02-14 00:09:00,
2013-02-13 17:24:00,49.9,38.0,30.01,WSW,249,0.0,0.0,65,0.00,,,0.00,weatherlink.com 1.10,2013-02-14 00:24:00,
2013-02-13 17:39:00,48.3,39.0,30.01,WSW,249,0.0,0.0,69,0.00,,,0.00,weatherlink.com 1.10,2013-02-14 00:39:00,
2013-02-13 17:54:00,47.5,39.0,30.01,SSE,153,0.0,1.0,71,0.00,,,0.00,weatherlink.com 1.10,2013-02-14 00:54:00,
2013-02-13 18:09:00,47.2,39.0,30.02,ESE,114,1.0,3.0,72,0.00,,,0.00,weatherlink.com 1.10,2013-02-14 01:09:00,
2013-02-13 18:24:00,46.7,38.0,30.02,SE,127,1.0,2.0,73,0.00,,,0.00,weatherlink.com 1.10,2013-02-14 01:24:00,
2013-02-13 18:39:00,46.1,38.0,30.01,SE,133,1.0,2.0,74,0.00,,,0.00,weatherlink.com 1.10,2013-02-14 01:39:00,
2013-02-13 18:54:00,45.5,38.0,30.02,SE,132,1.0,1.0,76,0.00,,,0.00,weatherlink.com 1.10,2013-02-14 01:54:00,
2013-02-13 19:09:00,45.0,38.0,30.02,SE,139,1.0,2.0,77,0.00,,,0.00,weatherlink.com 1.10,2013-02-14 02:09:00,
2013-02-13 19:24:00,44.8,38.0,30.02,SE,127,1.0,2.0,78,0.00,,,0.00,weatherlink.com 1.10,2013-02-14 02:24:00,
2013-02-13 19:39:00,44.5,38.0,30.02,SE,131,1.0,2.0,78,0.00,,,0.00,weatherlink.com 1.10,2013-02-14 02:39:00,
2013-02-13 19:54:00,44.2,38.0,30.02,SE,124,1.0,2.0,79,0.00,,,0.00,weatherlink.com 1.10,2013-02-14 02:54:00,
2013-02-13 20:09:00,44.0,38.0,30.02,SE,127,1.0,3.0,80,0.00,,,0.00,weatherlink.com 1.10,2013-02-14 03:09:00,
2013-02-13 20:24:00,43.7,38.0,30.03,SE,132,0.0,2.0,80,0.00,,,0.00,weatherlink.com 1.10,2013-02-14 03:24:00,
2013-02-13 20:39:00,43.4,38.0,30.03,SE,127,1.0,2.0,81,0.00,,,0.00,weatherlink.com 1.10,2013-02-14 03:39:00,
2013-02-13 20:54:00,43.2,38.0,30.03,ESE,122,2.0,3.0,82,0.00,,,0.00,weatherlink.com 1.10,2013-02-14 03:54:00,
2013-02-13 21:09:00,43.2,38.0,30.04,ESE,117,2.0,3.0,83,0.00,,,0.00,weatherlink.com 1.10,2013-02-14 04:09:00,
2013-02-13 21:39:00,42.4,38.0,30.04,SE,131,0.0,1.0,85,0.00,,,0.00,weatherlink.com 1.10,2013-02-14 04:39:00,
2013-02-13 22:09:00,41.9,38.0,30.04,ESE,118,1.0,1.0,86,0.00,,,0.00,weatherlink.com 1.10,2013-02-14 05:09:00,
2013-02-13 22:24:00,41.6,38.0,30.04,SE,124,1.0,1.0,87,0.00,,,0.00,weatherlink.com 1.10,2013-02-14 05:24:00,
2013-02-13 22:39:00,41.4,38.0,30.04,ESE,121,0.0,1.0,88,0.00,,,0.00,weatherlink.com 1.10,2013-02-14 05:39:00,
2013-02-13 22:54:00,41.2,38.0,30.04,ESE,121,0.0,1.0,88,0.00,,,0.00,weatherlink.com 1.10,2013-02-14 05:54:00,
2013-02-13 23:09:00,41.0,38.0,30.04,ESE,121,0.0,1.0,89,0.00,,,0.00,weatherlink.com 1.10,2013-02-14 06:09:00,
2013-02-13 23:24:00,40.7,38.0,30.04,ESE,123,0.0,1.0,89,0.00,,,0.00,weatherlink.com 1.10,2013-02-14 06:24:00,
2013-02-13 23:39:00,40.4,38.0,30.04,SE,129,0.0,1.0,89,0.00,,,0.00,weatherlink.com 1.10,2013-02-14 06:39:00,
2013-02-13 23:54:00,40.2,38.0,30.04,ESE,114,0.0,1.0,90,0.00,,,0.00,weatherlink.com 1.10,2013-02-14 06:54:00,